Find Starlink 30888

NORAD ID: 58370 Int'l Des: 2023-177 Owner: SPXS Country: US Constellation: starlink operational
LEOCIRCULAR

リアルタイム位置

3D地球を読み込み中...

Starlink 30888について

説明を読み込み中...

次回通過

Passes for default location (London). Set your location on the main map for personalized predictions.

高度履歴

Loading altitude history...

軌道要素

1 58370U 23177V 26127.88413207 .00002738 00000-0 10902-3 0 9999
2 58370 43.0052 16.0205 0001651 255.1734 104.8935 15.27573329137299
Epoch: May 7, 2026 • Age: 6 hours

現在のステータス

高度 487.7 km
速度 7.62 km/s
衛星直下点 -21.67°S, 73.22°E
打ち上げ日 Nov 18, 2023
運用期間 2.4 years
タイプ internet

技術仕様

分類 Payload
質量 730.00 kg
乾燥質量 700.00 kg
総質量 730.00 kg
長さ 0.30 m
直径 4.10 m
スパン 29.00 m
形状 Box + pan
製造者 SPXS
バスタイプ Starlink V2M
フェーズステータス In Orbit
所有者/国 SPXS/US

Most Searched